KTXEAGLE7 Weather Reports


Display with metric or nautical units.
time (UTC)temp
F
wind
direction
speed
MPH
gust
MPH
rain 1hr
in
rain 24hr
in
rain mn
in
humidity
%
barometer
mb
20260506033018 76 135 6.0 10.0 0.00 0.00 0.00 94 1009.3
20260506031518 76 135 5.0 12.0 0.00 0.00 0.00 93 1008.9
20260506030017 76 170 8.0 15.0 0.00 0.00 0.00 93 1008.6
20260506024517 76 157 6.0 14.0 0.00 0.00 0.00 91 1008.6
20260506023031 77 170 7.0 11.0 0.00 0.00 0.00 91 1008.6
20260506021531 77 164 7.0 14.0 0.00 0.00 0.00 91 1008.5
20260506020014 77 162 6.0 12.0 0.00 0.00 0.00 91 1008.1
20260506014518 77 161 4.0 9.0 0.00 0.00 0.00 91 1007.9
20260506013015 77 162 5.0 9.0 0.00 0.00 0.00 90 1007.7
20260506011514 77 163 5.0 12.0 0.00 0.00 0.00 90 1007.6
20260506010014 78 157 7.0 12.0 0.00 0.00 0.00 89 1007.3
20260506004513 78 172 5.0 10.0 0.00 0.00 0.00 88 1007.3
20260506003014 78 160 8.0 15.0 0.00 0.00 0.00 87 1007.1
20260506001511 79 169 8.0 14.0 0.00 0.00 0.00 86 1007.0
20260506000012 79 151 6.0 17.0 0.00 0.00 0.00 86 1007.0
20260505234513 79 167 10.0 18.0 0.00 0.00 0.00 85 1006.9
20260505233009 79 188 10.0 21.0 0.00 0.00 0.00 84 1006.8
20260505231514 80 152 12.0 23.0 0.00 0.00 0.00 84 1006.8
20260505230020 80 178 12.0 23.0 0.00 0.00 0.00 84 1006.8
20260505224512 80 169 11.0 22.0 0.00 0.00 0.00 83 1006.8
20260505223006 80 185 10.0 20.0 0.00 0.00 0.00 84 1007.0
20260505221506 80 178 14.0 22.0 0.00 0.00 0.00 84 1007.1
20260505220004 80 149 10.0 19.0 0.00 0.00 0.00 85 1007.2
20260505214502 80 172 9.0 17.0 0.00 0.00 0.00 85 1007.6
20260505213101 80 189 13.0 21.0 0.00 0.00 0.00 84 1007.7
20260505211600 80 167 15.0 21.0 0.00 0.00 0.00 84 1007.7
20260505210058 80 184 12.0 22.0 0.00 0.00 0.00 84 1007.9
20260505204555 80 187 14.0 22.0 0.00 0.00 0.00 85 1008.2
20260505203112 80 196 17.0 25.0 0.00 0.00 0.00 84 1008.4
20260505201600 79 168 14.0 22.0 0.00 0.00 0.00 85 1008.7
20260505200054 80 180 13.0 21.0 0.00 0.00 0.00 86 1009.0
20260505194549 79 173 12.0 20.0 0.00 0.00 0.00 86 1008.9
20260505193048 79 183 12.0 19.0 0.00 0.00 0.00 87 1009.2
20260505191552 79 194 12.0 19.0 0.00 0.00 0.00 87 1009.3
20260505190044 79 184 10.0 15.0 0.00 0.00 0.00 88 1009.4
20260505184544 78 195 8.0 15.0 0.00 0.00 0.00 88 1009.3
20260505183043 79 179 8.0 19.0 0.00 0.00 0.00 89 1009.4
20260505181545 78 185 13.0 20.0 0.00 0.00 0.00 87 1009.5
20260505180041 78 196 10.0 21.0 0.00 0.00 0.00 87 1009.7
20260505174544 79 185 11.0 20.0 0.00 0.00 0.00 87 1010.0
20260505173039 78 178 11.0 18.0 0.00 0.00 0.00 88 1009.9
20260505171543 78 213 17.0 24.0 0.00 0.00 0.00 87 1010.0
20260505170040 77 203 17.0 24.0 0.00 0.00 0.00 88 1010.0
20260505164531 77 180 13.0 20.0 0.00 0.00 0.00 90 1010.0
20260505163033 77 198 10.0 17.0 0.00 0.00 0.00 91 1010.0
20260505161527 77 204 10.0 18.0 0.00 0.00 0.00 91 1009.9
20260505153021 76 194 11.0 19.0 0.00 0.00 0.00 93 1009.9
20260505151520 75 211 9.0 19.0 0.00 0.00 0.00 94 1009.8
20260505130106 71 182 7.0 10.0 0.00 0.00 0.00 99 1009.7
20260505124558 71 162 5.0 10.0 0.00 0.00 0.00 99 1009.7
20260505123056 70 179 3.0 7.0 0.00 0.00 0.00 99 1009.7
20260505121615 69 172 2.0 5.0 0.00 0.00 0.00 99 1009.2
20260505120053 69 182 4.0 6.0 0.00 0.00 0.00 99 1009.1
20260505114551 69 164 2.0 6.0 0.00 0.00 0.00 99 1008.9
20260505113050 69 156 2.0 5.0 0.00 0.00 0.00 99 1009.0
20260505111549 69 154 3.0 6.0 0.00 0.00 0.00 98 1008.8
20260505101554 68 178 3.0 6.0 0.00 0.00 0.00 98 1009.0
20260505100045 68 163 3.0 5.0 0.00 0.00 0.00 98 1008.8
20260505094543 69 163 2.0 5.0 0.00 0.00 0.00 97 1009.4
20260505093044 68 173 4.0 5.0 0.00 0.00 0.00 97 1009.4
20260505091542 68 164 1.0 3.0 0.00 0.00 0.00 97 1009.2
20260505090055 68 187 1.0 4.0 0.00 0.00 0.00 97 1009.4
20260505084548 68 187 3.0 6.0 0.00 0.00 0.00 97 1009.4
20260505083039 68 165 1.0 5.0 0.00 0.00 0.00 96 1009.7
20260505081542 68 192 1.0 4.0 0.00 0.00 0.00 96 1010.0
20260505080034 68 192 3.0 8.0 0.00 0.00 0.00 96 1010.0
20260505074535 68 172 4.0 7.0 0.00 0.00 0.00 96 1009.8
20260505073037 68 158 4.0 8.0 0.00 0.00 0.00 96 1010.0
20260505071531 69 160 4.0 8.0 0.00 0.00 0.00 95 1010.0
20260505070029 69 168 6.0 11.0 0.00 0.00 0.00 95 1010.1
20260505064526 69 175 6.0 11.0 0.00 0.00 0.00 95 1010.3
20260505063026 68 176 5.0 12.0 0.00 0.00 0.00 95 1010.7
20260505061523 69 169 5.0 10.0 0.00 0.00 0.00 94 1010.6
20260505060029 68 165 5.0 9.0 0.00 0.00 0.00 95 1010.8
20260505054531 68 177 5.0 8.0 0.00 0.00 0.00 94 1011.0
20260505053017 68 192 3.0 7.0 0.00 0.00 0.00 94 1011.1
20260505051515 69 175 3.0 7.0 0.00 0.00 0.00 93 1011.3
20260505041511 69 155 3.0 7.0 0.00 0.00 0.00 91 1011.6
20260505040011 70 170 4.0 8.0 0.00 0.00 0.00 91 1011.4
20260505034509 70 167 5.0 9.0 0.00 0.00 0.00 90 1011.5